| time (UTC) | temp C | wind direction | speed KPH | gust KPH | rain 1hr cm | rain 24hr cm | rain mn cm | humidity % | barometer mb |
| 20260503210533 | 4 | 0.0 | 0.0 | 0.00 | 0.10 | 0.10 | 91 | 1008.5 | |
| 20260503205528 | 4 | 0.0 | 0.0 | 0.00 | 0.13 | 0.10 | 90 | 1008.6 | |
| 20260503204524 | 5 | 0.0 | 0.0 | 0.00 | 0.13 | 0.10 | 88 | 1008.7 | |
| 20260503203518 | 5 | 176 | 1.6 | 1.6 | 0.00 | 0.13 | 0.10 | 87 | 1008.6 |
| 20260503202533 | 5 | 182 | 0.0 | 1.6 | 0.00 | 0.15 | 0.10 | 88 | 1008.7 |
| 20260503201529 | 5 | 183 | 0.0 | 1.6 | 0.00 | 0.15 | 0.10 | 86 | 1008.6 |
| 20260503200545 | 6 | 178 | 1.6 | 1.6 | 0.00 | 0.15 | 0.10 | 85 | 1008.7 |
| 20260503195519 | 6 | 178 | 0.0 | 1.6 | 0.00 | 0.15 | 0.10 | 83 | 1008.9 |
| 20260503194554 | 6 | 180 | 1.6 | 3.2 | 0.00 | 0.15 | 0.10 | 82 | 1009.0 |
| 20260503193550 | 6 | 185 | 0.0 | 1.6 | 0.00 | 0.15 | 0.10 | 82 | 1009.0 |
| 20260503192524 | 6 | 180 | 0.0 | 1.6 | 0.00 | 0.15 | 0.10 | 81 | 1009.0 |
| 20260503191519 | 7 | 187 | 1.6 | 6.4 | 0.00 | 0.15 | 0.10 | 81 | 1009.1 |
| 20260503190535 | 7 | 191 | 1.6 | 3.2 | 0.00 | 0.15 | 0.10 | 80 | 1009.2 |
| 20260503185530 | 7 | 195 | 0.0 | 1.6 | 0.00 | 0.15 | 0.10 | 79 | 1009.2 |
| 20260503184526 | 7 | 200 | 3.2 | 9.7 | 0.00 | 0.15 | 0.10 | 78 | 1009.1 |
| 20260503183522 | 7 | 199 | 3.2 | 6.4 | 0.00 | 0.15 | 0.10 | 78 | 1008.9 |
| 20260503182517 | 7 | 196 | 3.2 | 4.8 | 0.00 | 0.15 | 0.10 | 77 | 1009.1 |
| 20260503181532 | 7 | 186 | 3.2 | 6.4 | 0.00 | 0.15 | 0.10 | 76 | 1009.1 |
| 20260503180528 | 7 | 193 | 3.2 | 6.4 | 0.00 | 0.15 | 0.10 | 75 | 1009.0 |
| 20260503175523 | 8 | 199 | 3.2 | 4.8 | 0.00 | 0.15 | 0.10 | 74 | 1009.0 |
| 20260503174518 | 8 | 183 | 4.8 | 12.9 | 0.00 | 0.15 | 0.10 | 72 | 1009.1 |
| 20260503173553 | 8 | 196 | 4.8 | 11.3 | 0.00 | 0.15 | 0.10 | 70 | 1009.0 |
| 20260503172528 | 8 | 189 | 3.2 | 4.8 | 0.00 | 0.15 | 0.10 | 69 | 1008.9 |
| 20260503171545 | 9 | 202 | 4.8 | 9.7 | 0.00 | 0.15 | 0.10 | 67 | 1008.8 |
| 20260503170604 | 9 | 196 | 4.8 | 6.4 | 0.00 | 0.15 | 0.10 | 66 | 1008.8 |
| 20260503150523 | 10 | 190 | 3.2 | 4.8 | 0.00 | 0.15 | 0.10 | 59 | 1009.9 |
| 20260503130527 | 8 | 113 | 3.2 | 11.3 | 0.00 | 0.15 | 0.10 | 57 | 1010.9 |
| 20260503110530 | 6 | 234 | 3.2 | 6.4 | 0.00 | 0.15 | 0.10 | 61 | 1012.0 |
| 20260503081529 | 5 | 201 | 1.6 | 4.8 | 0.00 | 0.15 | 0.10 | 67 | 1012.6 |
| 20260503080544 | 5 | 31 | 3.2 | 6.4 | 0.00 | 0.15 | 0.10 | 69 | 1012.7 |
| 20260503072525 | 5 | 237 | 1.6 | 4.8 | 0.00 | 0.15 | 0.10 | 71 | 1012.5 |
| 20260503071519 | 5 | 230 | 1.6 | 11.3 | 0.00 | 0.15 | 0.10 | 71 | 1012.6 |
| 20260503070535 | 5 | 250 | 3.2 | 9.7 | 0.00 | 0.15 | 0.10 | 72 | 1012.3 |
| 20260503054518 | 5 | 232 | 3.2 | 6.4 | 0.00 | 0.15 | 0.10 | 75 | 1012.0 |
| 20260503053614 | 5 | 152 | 1.6 | 6.4 | 0.00 | 0.15 | 0.10 | 76 | 1011.9 |
| 20260503052529 | 4 | 207 | 1.6 | 6.4 | 0.00 | 0.15 | 0.10 | 77 | 1012.0 |
| 20260503051525 | 4 | 180 | 1.6 | 6.4 | 0.00 | 0.15 | 0.10 | 77 | 1012.0 |
| 20260503050520 | 4 | 228 | 1.6 | 3.2 | 0.00 | 0.15 | 0.10 | 78 | 1012.0 |
| 20260503045536 | 4 | 224 | 1.6 | 9.7 | 0.00 | 0.15 | 0.10 | 78 | 1011.9 |
| 20260503044531 | 5 | 222 | 3.2 | 9.7 | 0.00 | 0.15 | 0.10 | 77 | 1012.0 |
| 20260503043527 | 5 | 242 | 1.6 | 6.4 | 0.00 | 0.15 | 0.10 | 77 | 1011.9 |
| 20260503042522 | 5 | 221 | 1.6 | 4.8 | 0.00 | 0.15 | 0.10 | 77 | 1011.7 |
| 20260503041517 | 5 | 160 | 1.6 | 6.4 | 0.00 | 0.15 | 0.10 | 77 | 1011.6 |
| 20260503040533 | 5 | 216 | 1.6 | 6.4 | 0.00 | 0.15 | 0.10 | 78 | 1011.6 |
| 20260503035548 | 5 | 207 | 1.6 | 4.8 | 0.00 | 0.15 | 0.10 | 79 | 1011.4 |
| 20260503034523 | 5 | 237 | 1.6 | 6.4 | 0.00 | 0.15 | 0.10 | 80 | 1011.3 |
| 20260503033518 | 5 | 233 | 1.6 | 3.2 | 0.00 | 0.15 | 0.10 | 81 | 1011.2 |
| 20260503032554 | 5 | 209 | 1.6 | 4.8 | 0.00 | 0.15 | 0.10 | 82 | 1011.2 |
| 20260503031529 | 5 | 221 | 1.6 | 6.4 | 0.00 | 0.15 | 0.10 | 82 | 1011.3 |
| 20260503030525 | 5 | 236 | 1.6 | 4.8 | 0.00 | 0.15 | 0.10 | 84 | 1011.1 |
| 20260503025520 | 5 | 211 | 0.0 | 1.6 | 0.00 | 0.15 | 0.10 | 84 | 1011.1 |
| 20260503024515 | 5 | 163 | 1.6 | 3.2 | 0.00 | 0.15 | 0.10 | 84 | 1011.1 |
| 20260503023551 | 5 | 194 | 0.0 | 1.6 | 0.00 | 0.15 | 0.10 | 86 | 1011.1 |
| 20260503022546 | 5 | 178 | 0.0 | 1.6 | 0.00 | 0.15 | 0.10 | 86 | 1011.3 |
| 20260503021521 | 5 | 112 | 1.6 | 4.8 | 0.00 | 0.15 | 0.10 | 86 | 1011.2 |
| 20260503020517 | 5 | 197 | 1.6 | 3.2 | 0.00 | 0.15 | 0.10 | 86 | 1011.1 |
| 20260503015532 | 5 | 176 | 1.6 | 4.8 | 0.00 | 0.15 | 0.10 | 86 | 1011.0 |
| 20260503014528 | 5 | 207 | 0.0 | 3.2 | 0.00 | 0.15 | 0.10 | 87 | 1010.9 |
| 20260503013522 | 5 | 192 | 0.0 | 1.6 | 0.00 | 0.15 | 0.10 | 87 | 1010.8 |
| 20260503012558 | 5 | 213 | 3.2 | 6.4 | 0.00 | 0.15 | 0.10 | 87 | 1010.9 |
| 20260503011533 | 5 | 229 | 1.6 | 9.7 | 0.03 | 0.15 | 0.10 | 87 | 1010.9 |
| 20260503010529 | 5 | 246 | 3.2 | 11.3 | 0.03 | 0.15 | 0.10 | 91 | 1010.8 |
| 20260503005544 | 6 | 191 | 1.6 | 6.4 | 0.03 | 0.15 | 0.10 | 92 | 1010.6 |
| 20260503004520 | 6 | 54 | 3.2 | 12.9 | 0.05 | 0.15 | 0.10 | 92 | 1010.6 |
| 20260503003535 | 6 | 55 | 3.2 | 11.3 | 0.08 | 0.15 | 0.10 | 95 | 1010.3 |
| 20260503002530 | 6 | 95 | 3.2 | 11.3 | 0.10 | 0.15 | 0.10 | 95 | 1010.2 |
| 20260503001526 | 6 | 42 | 4.8 | 12.9 | 0.08 | 0.13 | 0.08 | 95 | 1010.1 |
| 20260503000521 | 6 | 70 | 3.2 | 12.9 | 0.08 | 0.13 | 0.08 | 95 | 1010.1 |
| 20260502235517 | 6 | 82 | 4.8 | 9.7 | 0.08 | 0.13 | 0.08 | 95 | 1010.0 |
| 20260502234532 | 7 | 75 | 4.8 | 11.3 | 0.05 | 0.10 | 0.05 | 94 | 1009.9 |
| 20260502233527 | 7 | 75 | 6.4 | 12.9 | 0.03 | 0.08 | 0.03 | 93 | 1009.7 |
| 20260502232543 | 7 | 59 | 4.8 | 11.3 | 0.00 | 0.05 | 0.00 | 91 | 1009.7 |
| 20260502231518 | 7 | 48 | 8.0 | 16.1 | 0.00 | 0.05 | 0.00 | 89 | 1009.4 |
| 20260502230533 | 8 | 49 | 8.0 | 17.7 | 0.00 | 0.05 | 0.00 | 86 | 1009.4 |
| 20260502225529 | 10 | 257 | 3.2 | 9.7 | 0.00 | 0.05 | 0.00 | 86 | 1008.8 |
| 20260502224525 | 10 | 267 | 3.2 | 6.4 | 0.00 | 0.05 | 0.00 | 87 | 1008.7 |
| 20260502223559 | 10 | 228 | 0.0 | 1.6 | 0.00 | 0.05 | 0.00 | 89 | 1008.6 |
| 20260502222555 | 10 | 204 | 0.0 | 1.6 | 0.00 | 0.05 | 0.00 | 90 | 1008.4 |
| 20260502221530 | 9 | 209 | 1.6 | 3.2 | 0.00 | 0.05 | 0.00 | 91 | 1008.3 |
| 20260502220525 | 10 | 197 | 0.0 | 1.6 | 0.00 | 0.05 | 0.00 | 91 | 1008.3 |
| 20260502215540 | 10 | 206 | 0.0 | 1.6 | 0.03 | 0.05 | 0.05 | 90 | 1008.2 |
| 20260502214516 | 10 | 202 | 0.0 | 1.6 | 0.03 | 0.05 | 0.05 | 89 | 1008.3 |
| 20260502213531 | 10 | 197 | 0.0 | 1.6 | 0.03 | 0.05 | 0.05 | 90 | 1008.1 |
| 20260502212527 | 10 | 200 | 0.0 | 1.6 | 0.05 | 0.05 | 0.05 | 89 | 1008.2 |
| 20260502211523 | 10 | 0.0 | 0.0 | 0.05 | 0.05 | 0.05 | 86 | 1008.2 |